[[{"header":{"parameterUnit":"m.s-1","parameterCategory":1,"la1":30.2991,"la2":30.254,"lo1":-89.0895,"lo2":-89.0444,"dy":0.0017,"dx":0.0017,"nx":28,"ny":28,"refTime":"2025-06-13T03:00:00:Z","depth":0,"parameterNumber":2,"parameterNumberName":"U-component_of_WINDS"},"data":[0,0,0,0,0,0,0,0,0,0,0,0,0,0,0,0,0,0,0,0,0,0,0,0,0,0,0,0,0,0,0,0,0,0,0,0,0,0,0,0,0,0,0,0,0,0,0,0,0,0,0,0,0,0,0,0,0,0,0.1167,0.1168,0,0.1248,0.1249,0.125,0.1284,0.1284,0.1283,0.1283,0.1371,0.1373,0.1376,0,0,0,0,0,0,0,0,0,0,0,0,0,0.1046,0.1048,0.1167,0.1168,0.1169,0.1248,0.1249,0.125,0.1284,0.1284,0.1283,0.1283,0.137,0.1373,0.1376,0,0,0,0,0,0,0,0,0,0,0,0,0,0.111,0.1048,0.1167,0.1195,0.1198,0.1248,0.1249,0.125,0.1284,0.1284,0.1283,0.1283,0.1369,0.1373,0.1377,0.1405,0,0,0.1388,0.139,0,0,0,0,0,0,0,0,0.1106,0.1114,0.119,0.1193,0.1197,0.1255,0.1239,0.1302,0.1284,0.1252,0.1283,0.1283,0.1333,0.134,0.1356,0.1409,0.1413,0.1388,0.1391,0.1392,0.1393,0,0,0,0,0,0,0,0.1102,0.1111,0.1199,0.1191,0.1195,0.1205,0.1214,0.1251,0.1293,0.1254,0.1257,0.1266,0.1335,0.1352,0.1358,0.1414,0.1388,0.1392,0.1394,0.1395,0.1496,0.1497,0,0,0,0,0,0,0.1092,0.1107,0.1196,0.1201,0.115,0.1208,0.1218,0.1237,0.1293,0.1301,0.1266,0.1267,0.1346,0.1354,0.1361,0.1399,0.1392,0.1396,0.1398,0.1496,0.1496,0.1497,0,0,0,0,0,0,0.1089,0.11,0.1193,0.1155,0.1168,0.121,0.1232,0.1239,0.1256,0.1301,0.131,0.1275,0.1346,0.1356,0.1394,0.1403,0.1397,0.1401,0.1495,0.1496,0.1497,0.1474,0,0,0,0,0,0,0.1086,0.1098,0.1108,0.1155,0.117,0.1223,0.1232,0.1241,0.1262,0.1264,0.1312,0.132,0.1346,0.1388,0.1398,0.1408,0.1404,0.1495,0.1496,0.1496,0.1474,0.1474,0.1474,0,0,0,0,0,0.1081,0.11,0.1109,0.1119,0.1183,0.1223,0.1232,0.126,0.1262,0.1273,0.1303,0.1319,0.14,0.1392,0.1403,0.1414,0.1494,0.1495,0.1496,0.1474,0.1474,0.1474,0,0,0,0,0,0,0.1055,0.1106,0.1117,0.1151,0.1182,0.1229,0.1244,0.1259,0.1292,0.1293,0.1328,0.1339,0.1374,0.1398,0.1388,0.1445,0.1449,0.1452,0.1428,0.1428,0.1428,0.1422,0.1407,0,0,0,0,0,0.1052,0.1079,0.1124,0.1149,0.1164,0.1201,0.122,0.1239,0.1274,0.1288,0.132,0.1354,0.1388,0.1409,0.1442,0.1478,0.149,0.1491,0.1491,0.149,0.1493,0.1514,0.1516,0.15,0.15,0.15,0,0,0.1049,0.108,0.1095,0.1145,0.1171,0.12,0.1212,0.1242,0.1264,0.1293,0.133,0.1355,0.1396,0.1433,0.1451,0.1454,0.15,0.1491,0.1491,0.1494,0.1516,0.1517,0.1518,0.1501,0.1501,0.1501,0,0,0.1057,0.1082,0.1107,0.1133,0.1173,0.1197,0.1203,0.1248,0.1265,0.1303,0.1325,0.1353,0.1409,0.1438,0.1459,0.1478,0.1495,0.1488,0.1487,0.1507,0.1509,0.151,0.1518,0.152,0.1491,0.1491,0.1491,0,0.1047,0.109,0.1118,0.1147,0.1168,0.1194,0.122,0.1245,0.1294,0.1309,0.1311,0.1383,0.1412,0.1457,0.1461,0.1478,0.1487,0.1483,0.1506,0.1507,0.1509,0.1517,0.152,0.149,0.149,0.149,0.149,0,0.1077,0.1106,0.1122,0.1167,0.119,0.1218,0.1251,0.1272,0.1289,0.1314,0.1353,0.1389,0.143,0.1442,0.146,0.1489,0.149,0.1499,0.1503,0.1509,0.1517,0.1521,0.1488,0.1489,0.1489,0.1489,0,0,0.1071,0.1131,0.1136,0.1157,0.1203,0.1227,0.1256,0.1295,0.1313,0.1346,0.1372,0.1419,0.1428,0.1452,0.1474,0.1492,0.1506,0.1498,0.15,0.1499,0.1542,0.1536,0.1539,0.1516,0.1517,0.1517,0.1539,0,0.1086,0.1137,0.1163,0.1204,0.1232,0.1257,0.1283,0.1315,0.1339,0.1367,0.1395,0.1428,0.1436,0.1451,0.147,0.15,0.1515,0.1499,0.1543,0.1544,0.1532,0.1543,0.1536,0.1555,0.1542,0.1543,0.1543,0,0.111,0.1141,0.1184,0.1227,0.124,0.1262,0.13,0.1327,0.1364,0.1381,0.1408,0.1429,0.1462,0.1463,0.1511,0.1499,0.1519,0.1536,0.1538,0.1544,0.1544,0.155,0.1561,0.1564,0.1548,0.1548,0.1547,0,0.1102,0.1155,0.1188,0.1205,0.1256,0.1271,0.1293,0.133,0.1352,0.1386,0.1401,0.1439,0.146,0.1489,0.152,0.1518,0.1565,0.1569,0.1581,0.158,0.159,0.159,0.1606,0.1601,0.1601,0.1601,0.1601,0,0.1116,0.1141,0.1185,0.1205,0.1235,0.1266,0.1296,0.132,0.1352,0.1379,0.1404,0.1429,0.1467,0.1498,0.1523,0.1559,0.1568,0.1583,0.159,0.1581,0.158,0.1596,0.1596,0.1602,0.1602,0.1602,0.1602,0,0.1112,0.1142,0.118,0.1224,0.1236,0.1257,0.1296,0.1318,0.1343,0.1376,0.1386,0.1426,0.1463,0.1497,0.1546,0.1563,0.16,0.1607,0.1587,0.1591,0.1601,0.16,0.1629,0.1635,0.1625,0.1625,0.1626,0,0.112,0.114,0.1186,0.1205,0.1226,0.1257,0.1279,0.1311,0.1333,0.1377,0.1394,0.1432,0.1465,0.1523,0.1558,0.1596,0.1606,0.1613,0.1612,0.1603,0.1607,0.1606,0.1609,0.1613,0.1613,0.1613,0.1613,0,0.113,0.1144,0.1174,0.121,0.1235,0.1265,0.1296,0.1311,0.1349,0.1373,0.141,0.1435,0.1486,0.1524,0.1566,0.1591,0.1609,0.1613,0.1618,0.161,0.1598,0.1606,0.1587,0.1612,0.1612,0.1612,0.1612,0.1612,0.1133,0.1152,0.1188,0.1221,0.1248,0.1276,0.1299,0.1326,0.1357,0.14,0.1417,0.1455,0.1493,0.1552,0.1576,0.1608,0.1612,0.1619,0.1621,0.1622,0.1621,0.1592,0.1616,0.1616,0.1616,0.1616,0.1616,0,0.1145,0.1169,0.1199,0.1241,0.1268,0.1281,0.1316,0.1338,0.1371,0.1404,0.1435,0.1479,0.1516,0.1554,0.1594,0.1612,0.1621,0.1621,0.1621,0.1627,0.1615,0.1607,0.1613,0.1613,0.1613,0.1613,0.1613,0.1613,0.1155,0.1188,0.1206,0.1254,0.1279,0.1315,0.1334,0.1362,0.1388,0.1435,0.1466,0.149,0.1525,0.1568,0.1604,0.1614,0.1628,0.1626,0.1639,0.1627,0.1627,0.1627,0.162,0.1629,0.1629,0.1648,0.1648,0.1648]},{"header":{"parameterUnit":"m.s-1","parameterCategory":1,"la1":30.2991,"la2":30.254,"lo1":-89.0895,"lo2":-89.0444,"dy":0.0017,"dx":0.0017,"nx":28,"ny":28,"refTime":"2025-06-13T03:00:00:Z","depth":0,"parameterNumber":3,"parameterNumberName":"V-component_of_WINDS"},"data":[0,0,0,0,0,0,0,0,0,0,0,0,0,0,0,0,0,0,0,0,0,0,0,0,0,0,0,0,0,0,0,0,0,0,0,0,0,0,0,0,0,0,0,0,0,0,0,0,0,0,0,0,0,0,0,0,0,0,4.086,4.086,0,4.0807,4.0806,4.0805,4.0748,4.0747,4.0747,4.0746,4.0688,4.0687,4.0687,0,0,0,0,0,0,0,0,0,0,0,0,0,4.0911,4.0911,4.086,4.0859,4.0859,4.0807,4.0806,4.0805,4.0748,4.0747,4.0746,4.0745,4.0688,4.0688,4.0687,0,0,0,0,0,0,0,0,0,0,0,0,0,4.0877,4.091,4.086,4.0824,4.082,4.0807,4.0806,4.0805,4.0748,4.0747,4.0746,4.0745,4.0689,4.0688,4.0687,4.0703,0,0,4.0683,4.0682,0,0,0,0,0,0,0,0,4.0879,4.0875,4.083,4.0827,4.0822,4.0783,4.0803,4.0771,4.0749,4.0776,4.0746,4.0744,4.0721,4.0717,4.0709,4.0701,4.0698,4.0683,4.0682,4.0682,4.0681,0,0,0,0,0,0,0,4.0881,4.0877,4.0839,4.083,4.0825,4.081,4.0804,4.0797,4.0755,4.0773,4.0769,4.0764,4.0718,4.071,4.0707,4.0697,4.0683,4.0682,4.0681,4.0681,4.0701,4.0702,0,0,0,0,0,0,4.0889,4.0879,4.0841,4.0837,4.0848,4.081,4.0803,4.0797,4.0755,4.0748,4.0765,4.0761,4.0713,4.0709,4.0705,4.0723,4.0682,4.068,4.068,4.07,4.0702,4.0703,0,0,0,0,0,0,4.0891,4.0886,4.0843,4.0857,4.085,4.0811,4.0804,4.0796,4.0789,4.0749,4.0741,4.0765,4.0712,4.0707,4.0705,4.072,4.068,4.0679,4.0699,4.0701,4.0702,4.0759,0,0,0,0,0,0,4.0892,4.0887,4.0893,4.0858,4.085,4.0844,4.0805,4.0796,4.0787,4.0782,4.0747,4.074,4.0711,4.0707,4.0704,4.0718,4.0678,4.0697,4.0699,4.0702,4.0756,4.0763,4.0769,0,0,0,0,0,4.0894,4.0911,4.0894,4.089,4.0857,4.0845,4.084,4.0807,4.0789,4.0794,4.0769,4.0741,4.0719,4.0707,4.0703,4.0717,4.0696,4.0699,4.0701,4.0753,4.0761,4.0769,0,0,0,0,0,0,4.0948,4.0905,4.0886,4.0892,4.0873,4.0835,4.0842,4.0817,4.0802,4.0798,4.0757,4.0749,4.0752,4.0734,4.0722,4.0732,4.0704,4.0706,4.0744,4.0752,4.0758,4.0763,4.0677,0,0,0,0,0,4.0961,4.0955,4.0918,4.0926,4.0918,4.0882,4.0875,4.0852,4.083,4.0821,4.0795,4.0774,4.0763,4.0756,4.0743,4.0753,4.0745,4.0761,4.0767,4.0773,4.0775,4.078,4.0787,4.0712,4.0712,4.0712,0,0,4.0986,4.0962,4.0961,4.0936,4.0919,4.0914,4.0875,4.0871,4.0867,4.082,4.0817,4.0798,4.0771,4.0776,4.0776,4.0761,4.0794,4.0776,4.0781,4.078,4.0784,4.0791,4.0797,4.0714,4.0714,4.0713,0,0,4.1031,4.1012,4.1018,4.1001,4.0976,4.0952,4.0953,4.092,4.0906,4.0903,4.0868,4.0862,4.0843,4.0826,4.0815,4.0855,4.0829,4.0852,4.0886,4.0892,4.0897,4.0902,4.0918,4.0924,4.0855,4.0855,4.0855,0,4.1066,4.1058,4.1023,4.1022,4.1013,4.0971,4.0977,4.0962,4.0933,4.0927,4.0911,4.0887,4.0866,4.0867,4.0877,4.0869,4.087,4.0856,4.0899,4.0904,4.0908,4.0922,4.0928,4.0858,4.0857,4.0857,4.0857,0,4.1103,4.1098,4.1105,4.108,4.1071,4.1073,4.1039,4.1034,4.1011,4.0989,4.0987,4.0961,4.0943,4.0941,4.0918,4.0939,4.093,4.0907,4.0878,4.0919,4.0932,4.0937,4.0862,4.0861,4.086,4.0859,0,0,4.1179,4.1136,4.114,4.1128,4.1098,4.1093,4.1093,4.1077,4.1074,4.1055,4.1055,4.104,4.1019,4.1007,4.0982,4.0987,4.1022,4.0963,4.0962,4.0976,4.1044,4.1062,4.1069,4.1004,4.1005,4.1005,4.1046,0,4.1219,4.1218,4.1188,4.1195,4.1191,4.1152,4.1152,4.1133,4.1113,4.1106,4.1082,4.1074,4.1046,4.1039,4.1041,4.1017,4.1035,4.1013,4.1003,4.1003,4.1012,4.1075,4.1094,4.1133,4.1051,4.1051,4.1052,0,4.1265,4.1251,4.1259,4.123,4.1226,4.1227,4.1211,4.1204,4.1182,4.1167,4.1154,4.1127,4.1125,4.1097,4.1094,4.108,4.1074,4.1062,4.1062,4.1061,4.1031,4.1075,4.1145,4.1151,4.1059,4.1059,4.1058,0,4.1322,4.1305,4.1307,4.1299,4.1264,4.1266,4.1251,4.1228,4.1221,4.1206,4.1201,4.1185,4.1177,4.1166,4.1135,4.1117,4.1136,4.1105,4.1123,4.1124,4.1129,4.1129,4.1199,4.1124,4.1124,4.1124,4.1124,0,4.1369,4.1376,4.1332,4.1334,4.134,4.1305,4.1312,4.1294,4.1274,4.1271,4.1236,4.1234,4.1193,4.1187,4.1162,4.1164,4.116,4.1148,4.1142,4.1152,4.1154,4.1148,4.1144,4.1126,4.1125,4.1125,4.1125,0,4.1433,4.1405,4.1405,4.1373,4.1365,4.1371,4.1343,4.1343,4.1321,4.1319,4.1316,4.1281,4.1272,4.124,4.1222,4.1206,4.1216,4.1203,4.1224,4.1219,4.124,4.1239,4.1309,4.1317,4.1237,4.1237,4.1238,0,4.1466,4.1471,4.1439,4.1436,4.1423,4.1417,4.141,4.1376,4.137,4.1346,4.1349,4.1337,4.1326,4.1313,4.1286,4.1273,4.1259,4.1285,4.1257,4.1268,4.1261,4.1261,4.1262,4.1291,4.1292,4.1293,4.1294,0,4.1528,4.1514,4.1505,4.1492,4.1485,4.1473,4.1458,4.1457,4.1419,4.1414,4.1404,4.1396,4.1379,4.1368,4.135,4.1335,4.1308,4.1303,4.1307,4.1317,4.1329,4.1324,4.1241,4.1301,4.1301,4.13,4.13,4.1299,4.1578,4.1581,4.156,4.1551,4.1537,4.1525,4.1524,4.1503,4.1495,4.1479,4.1459,4.1453,4.1431,4.1405,4.1392,4.1386,4.1372,4.1377,4.1378,4.138,4.1385,4.133,4.1383,4.1383,4.1382,4.1382,4.1382,0,4.1639,4.1624,4.1617,4.1598,4.1592,4.1569,4.1552,4.1548,4.1543,4.1526,4.1517,4.1507,4.1496,4.1469,4.1455,4.1456,4.1444,4.1454,4.1454,4.1451,4.1399,4.1397,4.1464,4.1464,4.1464,4.1464,4.1464,4.1464,4.167,4.1673,4.1657,4.1653,4.1638,4.1632,4.1625,4.1613,4.16,4.1591,4.1582,4.1565,4.1544,4.1529,4.1518,4.1511,4.1508,4.1522,4.151,4.1462,4.1454,4.1447,4.1445,4.1521,4.1522,4.1563,4.1563,4.1564]}]]